Weather History for Lancaster, OH

Change the Weather History Date:

Thursday, April 11, 2013

  Actual Average Record
Temperature  
Mean Temperature 65 °F -  
Max Temperature 73 °F 57 °F 83 °F (1945)
Min Temperature 57 °F 31 °F 22 °F (1985)
Growing Degree Days 15 (Base 50)    
Moisture  
Dew Point 57 °F    
Average Humidity 82    
Maximum Humidity 94    
Minimum Humidity 64    
Precipitation  
Precipitation 0.33 in - - ()
Sea Level Pressure  
Sea Level Pressure 29.72 in    
Wind  
Wind Speed 6 mph (NNW)    
Max Wind Speed 14 mph    
Max Gust Speed 20 mph    
Visibility 8 miles    
Events Rain    
Averages and records for this station are not official NWS values.
T = Trace of Precipitation, MM = Missing Value Source: NWS Daily Summary

Daily Weather History Graph

Daily Weather History Graph

Search for Another Location

Airport:

Trip Planner

Search our weather history database for the weather conditions in past years. The results will help you decide how hot, cold, wet, or windy it might be!

Date:

Astronomy

Apr. 11, 2013 Rise Set
Actual Time 6:58 AM EDT 8:05 PM EDT
Civil Twilight 6:31 AM EDT 8:32 PM EDT
Nautical Twilight 5:58 AM EDT 9:05 PM EDT
Astronomical Twilight 5:23 AM EDT 9:40 PM EDT
Moon 7:29 AM EDT (4/11) 9:38 PM EDT (4/11)
Length of Visible Light 14h 01m
Length of Day
13h 06m
New Moon, 2% of the Moon is Illuminated
Apr 11
New Moon
Apr 18
First Quarter
Apr 25
Full
May 2
Last Quarter
May 9
New

Hourly Weather History & Observations

Time (EDT) Temp. Dew Point Humidity Pressure Visibility Wind Dir Wind Speed Gust Speed Precip Events Conditions
12:53 AM 61.0 °F 55.9 °F 83% 29.88 in 10.0 mi NNE 4.6 mph - N/A   Overcast
1:53 AM 57.0 °F 54.0 °F 89% 29.85 in 10.0 mi ESE 4.6 mph - N/A   Clear
2:53 AM 59.0 °F 54.0 °F 83% 29.82 in 10.0 mi SE 8.1 mph - N/A   Clear
3:53 AM 60.1 °F 54.0 °F 80% 29.80 in 10.0 mi SSE 6.9 mph - N/A   Partly Cloudy
4:53 AM 61.0 °F 53.1 °F 75% 29.79 in 10.0 mi SE 11.5 mph - N/A   Scattered Clouds
5:53 AM 64.0 °F 52.0 °F 65% 29.77 in 10.0 mi SE 11.5 mph - N/A   Partly Cloudy
6:53 AM 62.1 °F 52.0 °F 70% 29.78 in 10.0 mi SSE 8.1 mph - N/A   Mostly Cloudy
7:53 AM 62.1 °F 53.1 °F 72% 29.80 in 10.0 mi Calm Calm - N/A   Mostly Cloudy
8:53 AM 63.0 °F 54.0 °F 72% 29.83 in 10.0 mi NNW 5.8 mph - N/A   Overcast
9:53 AM 63.0 °F 55.0 °F 75% 29.84 in 10.0 mi Calm Calm - N/A   Overcast
10:17 AM 60.8 °F 55.4 °F 82% 29.86 in 2.5 mi North 4.6 mph - 0.03 in Rain Rain
10:24 AM 60.8 °F 55.4 °F 82% 29.85 in 4.0 mi North 5.8 mph - 0.03 in Rain Light Rain
10:53 AM 60.1 °F 57.0 °F 90% 29.85 in 7.0 mi Calm Calm - 0.04 in Rain Light Rain
11:53 AM 61.0 °F 57.9 °F 90% 29.84 in 7.0 mi NNW 6.9 mph - 0.01 in Rain Light Rain
1:53 PM 64.9 °F 59.0 °F 81% 29.75 in 10.0 mi SE 13.8 mph 17.3 mph 0.00 in   Mostly Cloudy
2:53 PM 70.0 °F 57.9 °F 65% 29.74 in 10.0 mi South 3.5 mph - N/A   Overcast
3:53 PM 73.0 °F 60.1 °F 64% 29.69 in 10.0 mi NNE 5.8 mph - N/A   Mostly Cloudy
4:53 PM 73.0 °F 60.1 °F 64% 29.66 in 10.0 mi NE 4.6 mph - N/A   Mostly Cloudy
5:53 PM 69.1 °F 61.0 °F 75% 29.63 in 10.0 mi NNW 6.9 mph - N/A   Mostly Cloudy
6:53 PM 66.9 °F 60.1 °F 79% 29.61 in 10.0 mi North 5.8 mph - N/A   Overcast
7:53 PM 66.0 °F 60.1 °F 81% 29.57 in 10.0 mi NE 6.9 mph - 0.00 in   Mostly Cloudy
8:53 PM 64.0 °F 60.1 °F 87% 29.56 in 10.0 mi NNW 5.8 mph - N/A   Mostly Cloudy
9:43 PM 62.6 °F 60.8 °F 94% 29.62 in 5.0 mi WNW 10.4 mph 19.6 mph 0.02 in Rain Light Rain
9:53 PM 63.0 °F 59.0 °F 87% 29.62 in 5.0 mi WNW 8.1 mph - 0.03 in Rain Light Rain
10:14 PM 62.6 °F 59.0 °F 88% 29.64 in 2.5 mi West 9.2 mph - 0.05 in Rain Rain
10:23 PM 62.6 °F 60.8 °F 94% 29.65 in 2.5 mi WSW 10.4 mph - 0.08 in Rain Rain
10:35 PM 62.6 °F 60.8 °F 94% 29.64 in 2.0 mi WSW 8.1 mph - 0.13 in Rain Rain
10:51 PM 60.8 °F 59.0 °F 94% 29.63 in 3.0 mi WNW 5.8 mph - 0.19 in Rain Rain
10:53 PM 61.0 °F 59.0 °F 93% 29.62 in 3.0 mi WNW 5.8 mph - 0.19 in Rain Light Rain
11:02 PM 60.8 °F 59.0 °F 94% 29.62 in 5.0 mi WNW 3.5 mph - 0.01 in Rain Light Rain
11:53 PM 60.1 °F 57.9 °F 93% 29.57 in 6.0 mi South 3.5 mph - 0.06 in Rain Light Rain